Wind_Speed
34 35 35 34 34 34 33 32 32 34 36 36 35 35 35 34 34 33 34 35 35 36 37 38 38 38 38 38 39 39 40 40 41 42 44 46 48 49 50 51 53 54 56
35 36 36 37 36 35 35 35 36 38 39 38 36 37 38 37 36 36 36 38 39 40 39 40 40 40 40 40 40 41 42 43 43 44 45 47 48 50 52 53 55 57 59
35 36 37 37 36 36 36 37 39 41 42 41 39 38 38 38 38 38 38 40 40 41 41 41 40 41 41 41 42 42 43 45 46 47 48 49 50 52 54 57 59 60 60
36 37 36 35 35 36 37 38 41 42 41 40 40 41 39 39 39 39 40 41 41 41 42 41 42 43 43 44 44 45 45 46 49 50 51 53 54 55 56 58 60 61 62
36 35 34 33 34 36 38 40 43 42 40 41 41 39 39 39 40 40 41 42 42 42 43 43 45 45 46 46 47 47 48 49 50 52 54 56 57 59 60 60 60 61 62
35 34 33 33 35 38 40 42 44 43 42 42 40 39 39 39 41 41 42 43 43 44 44 45 46 46 47 48 49 50 50 52 54 56 57 59 61 63 63 62 61 61 63
32 32 32 34 36 40 43 45 44 44 43 43 41 39 39 40 41 43 44 45 45 45 46 47 47 48 49 50 51 51 52 55 57 59 61 62 64 65 65 64 63 63 63
29 29 31 35 39 42 44 44 44 43 43 42 40 39 41 41 43 45 46 47 47 47 48 49 49 50 50 51 52 54 56 58 60 62 63 64 65 66 65 65 65 64 64
28 31 34 37 40 42 44 45 45 43 40 40 39 40 41 43 45 47 48 49 50 51 51 51 51 53 54 54 56 57 59 61 62 63 64 64 64 64 65 66 66 66 65
31 33 36 39 41 43 45 44 42 40 39 39 40 41 43 46 48 50 51 52 53 53 54 55 56 57 58 58 59 60 61 62 63 63 64 63 62 62 63 63 65 66 67
34 36 38 40 42 44 44 43 41 39 38 40 41 43 45 48 50 53 54 55 56 57 58 59 60 60 61 61 62 63 63 64 63 62 61 61 61 61 62 63 65 66 68
37 38 40 42 44 44 43 42 41 41 41 42 44 47 49 52 54 56 57 59 60 61 61 62 62 62 62 62 62 63 63 63 62 61 60 60 59 60 61 63 64 66 67
40 41 42 43 43 43 44 46 46 45 46 49 51 52 54 55 57 58 59 60 61 62 62 62 62 61 62 62 63 63 62 61 60 58 58 58 58 59 60 61 63 63 63
41 42 42 43 44 46 48 51 52 52 54 55 55 56 57 57 57 58 59 60 60 60 60 60 60 60 60 60 60 60 59 58 57 57 57 57 57 58 59 60 59 58 54
44 43 44 45 48 51 55 57 58 58 58 57 57 56 55 55 55 56 56 57 57 57 57 58 58 58 58 58 58 58 57 56 55 55 55 56 57 57 57 55 51 47 43
47 46 48 52 55 57 58 59 59 59 58 57 56 55 54 53 53 53 53 54 54 55 55 56 56 56 56 56 56 55 54 53 53 53 54 55 54 53 50 46 41 38 34
50 53 56 57 58 58 58 58 57 57 57 56 54 53 52 51 50 50 51 52 52 53 54 54 54 54 54 53 52 51 51 51 52 52 52 51 48 44 39 35 32 29 26
55 55 56 56 56 56 56 56 55 54 53 51 50 49 47 47 48 48 48 49 49 50 50 51 50 50 49 49 48 49 50 50 50 49 47 43 38 33 29 26 23 21 20
53 53 53 53 53 53 52 52 51 50 48 47 45 44 44 44 44 45 46 47 47 48 48 49 48 46 46 46 46 46 46 45 44 41 37 32 28 23 20 18 16 16 15
50 51 51 50 50 50 49 48 47 45 44 42 41 41 41 42 43 44 45 46 46 46 45 44 44 44 44 43 42 41 39 37 35 32 29 24 20 16 14 12 12 12 12
47 47 47 47 46 46 44 43 41 40 39 38 38 39 40 41 42 42 43 43 42 42 42 42 42 41 39 38 36 34 31 29 27 25 22 18 14 11 10 9 9 10 11
43 43 42 42 41 39 38 37 36 35 35 36 36 38 38 39 39 39 40 40 40 40 39 38 37 35 33 31 29 27 24 22 20 18 15 11 9 7 7 7 8 9 11
38 38 37 36 34 33 32 32 32 32 33 34 35 36 37 38 38 38 38 38 37 35 34 32 31 28 26 25 23 21 18 16 14 11 8 6 4 5 6 7 8 10 11
32 31 30 29 29 29 29 28 29 31 32 33 34 35 36 36 37 36 35 34 32 30 28 25 24 22 21 20 18 16 14 11 8 5 3 3 3 5 6 7 8 10 12
25 24 24 24 24 24 25 27 28 30 31 32 34 34 35 34 34 32 30 27 25 23 21 20 19 18 17 16 15 13 10 7 3 1 3 3 4 5 6 7 9 10 12
19 18 19 19 20 22 24 26 29 30 32 33 33 33 32 30 28 25 23 21 20 18 17 16 15 15 14 13 11 8 5 2 2 4 5 5 6 7 7 8 9 11 12
Wind_Direction
281 285 290 295 299 303 305 305 303 303 300 297 298 300 298 296 294 292 291 292 291 290 290 292 293 294 294 294 292 288 287 286 285 285 285 286 287 288 289 289 289 288 288
281 286 290 294 297 299 301 303 302 299 296 293 292 293 292 292 291 290 290 290 290 290 290 292 292 292 292 292 291 288 287 287 286 286 286 287 288 289 289 290 290 289 289
279 283 287 290 292 294 297 299 298 295 291 288 289 288 286 286 288 288 288 289 291 293 294 294 294 294 292 292 292 289 287 288 287 287 288 288 288 288 288 289 289 289 288
275 279 282 286 288 291 293 294 293 291 288 288 289 288 286 285 286 286 288 289 291 293 295 295 295 294 292 292 292 291 289 288 288 289 289 289 290 289 288 289 290 289 289
269 274 277 281 284 286 288 289 289 288 289 290 290 289 288 287 286 286 287 290 291 293 294 295 295 294 294 293 293 292 290 290 290 290 290 290 291 291 290 290 290 289 289
263 267 272 277 280 282 284 285 287 288 291 292 292 290 290 288 288 288 289 290 291 292 293 294 294 294 294 293 293 292 291 291 291 291 291 290 291 292 291 291 290 289 290
256 261 268 273 275 276 279 282 285 288 290 292 293 293 291 289 289 290 290 291 292 292 292 292 293 293 293 293 292 292 291 291 291 292 291 291 291 292 292 292 292 291 290
255 259 263 265 267 270 274 279 282 285 288 291 292 291 291 291 291 291 291 291 291 291 291 291 292 292 292 292 292 292 291 290 290 291 291 292 292 293 293 293 293 291 291
258 259 261 263 267 270 273 276 279 282 286 289 291 292 292 291 291 291 290 290 289 289 290 291 291 291 291 292 292 291 292 292 293 293 293 293 294 295 295 294 293 292 291
263 264 266 267 270 273 275 279 281 280 284 288 291 292 291 291 290 290 289 289 289 289 290 291 292 292 292 292 292 293 294 295 296 297 297 297 296 296 295 294 293 292 292
267 269 271 272 274 276 278 280 279 279 283 287 289 289 289 289 289 289 289 289 288 289 290 291 292 292 293 293 294 294 295 297 298 298 299 298 298 296 295 294 294 294 294
268 270 272 274 276 278 281 281 281 283 284 286 287 287 287 287 288 287 287 287 288 289 290 291 291 292 293 294 294 295 296 298 299 299 299 299 298 296 295 295 296 296 296
271 273 275 276 278 281 284 285 286 286 287 288 288 288 288 287 287 287 287 287 288 289 290 290 291 292 293 294 295 297 298 299 300 299 299 298 297 297 298 298 298 298 298
271 274 277 278 282 284 286 287 289 289 289 289 289 288 288 287 287 287 287 287 288 289 290 291 291 293 294 296 297 298 299 299 299 299 299 299 299 299 299 300 300 300 301
272 274 278 282 284 287 289 290 290 290 290 290 290 290 289 289 288 288 287 288 288 289 290 291 293 295 296 298 298 299 299 299 299 299 299 299 300 300 301 301 302 303 304
274 278 282 286 288 289 290 290 291 291 292 292 292 291 291 290 289 288 288 288 289 290 292 293 295 297 299 299 299 299 299 299 299 299 300 300 301 302 302 303 304 305 307
280 284 287 288 288 289 289 290 290 291 291 292 292 292 292 291 290 289 289 290 290 292 294 295 297 298 299 299 299 299 300 300 300 300 300 301 302 303 303 303 305 308 312
286 286 287 288 289 290 290 291 291 292 292 293 293 292 291 291 290 290 291 292 293 294 296 298 298 299 299 300 300 300 301 300 301 301 301 302 303 304 304 306 309 312 316
284 286 288 289 290 290 291 291 292 292 293 293 293 293 292 292 293 293 294 295 296 296 297 298 299 300 301 301 301 301 301 301 302 303 304 305 306 307 308 310 313 317 322
285 287 288 289 289 290 291 292 292 293 293 293 293 293 294 294 294 295 296 297 297 298 300 301 301 302 302 302 302 302 302 302 304 305 307 309 310 311 313 316 321 325 327
285 286 287 289 290 291 292 293 293 294 294 294 294 295 296 297 297 298 299 300 301 302 303 303 303 302 301 301 301 302 302 303 304 306 308 310 313 317 321 326 330 331 334
285 287 288 290 292 292 293 294 295 296 296 296 297 298 299 300 300 301 302 303 304 304 304 303 303 302 302 303 304 305 305 305 306 306 307 311 319 329 336 339 342 344 346
286 288 290 292 294 295 295 296 297 299 300 300 302 302 302 303 304 305 306 306 305 305 304 304 303 304 305 307 309 310 309 308 306 303 305 319 340 352 353 353 355 358 360
287 289 291 293 296 298 299 300 301 303 305 306 307 307 308 308 308 308 307 306 306 306 306 306 307 308 310 312 313 314 313 312 306 303 320 2 15 11 7 8 12 14 14
289 292 295 297 300 302 304 306 308 310 310 310 310 310 310 309 309 308 308 308 308 309 310 310 311 312 314 316 316 316 317 317 326 33 58 56 42 29 25 28 29 28 28
293 298 302 305 308 310 313 314 315 314 314 313 313 313 312 312 311 311 311 311 312 312 313 312 313 315 316 317 318 317 317 331 84 89 82 66 50 43 43 43 41 42 40
Height
5865 5865 5865 5864 5864 5863 5862 5861 5860 5858 5855 5852 5850 5850 5848 5848 5847 5845 5842 5840 5838 5835 5833 5831 5830 5828 5825 5823 5820 5818 5815 5813 5811 5809 5807 5804 5800 5797 5793 5789 5785 5781 5777
5860 5858 5858 5858 5857 5856 5855 5855 5853 5851 5849 5845 5843 5842 5841 5840 5839 5837 5835 5832 5830 5827 5825 5823 5821 5819 5816 5814 5811 5808 5805 5802 5800 5798 5795 5793 5790 5785 5781 5777 5772 5768 5763
5854 5853 5852 5852 5851 5850 5849 5848 5846 5845 5842 5839 5836 5835 5833 5833 5831 5830 5827 5824 5821 5819 5817 5814 5812 5809 5807 5804 5801 5798 5795 5792 5789 5786 5784 5781 5778 5774 5770 5764 5759 5754 5749
5848 5848 5847 5847 5845 5844 5843 5841 5840 5837 5834 5831 5829 5828 5826 5825 5824 5822 5819 5816 5813 5811 5808 5805 5803 5800 5797 5794 5791 5788 5785 5781 5778 5774 5771 5768 5764 5761 5757 5752 5745 5738 5733
5841 5841 5841 5841 5839 5838 5836 5835 5833 5829 5827 5825 5822 5820 5819 5818 5816 5814 5811 5809 5806 5803 5800 5796 5793 5790 5787 5783 5780 5777 5774 5770 5766 5762 5757 5753 5749 5745 5742 5738 5732 5724 5717
5835 5835 5835 5834 5833 5831 5830 5828 5825 5822 5820 5818 5815 5813 5812 5811 5808 5805 5804 5801 5798 5795 5791 5787 5783 5780 5776 5773 5769 5765 5762 5758 5753 5749 5744 5739 5734 5729 5724 5720 5715 5710 5703
5828 5828 5828 5827 5826 5824 5823 5820 5817 5815 5813 5811 5808 5806 5805 5803 5801 5798 5795 5792 5789 5785 5781 5777 5773 5770 5766 5762 5758 5754 5749 5745 5740 5735 5729 5724 5718 5712 5707 5702 5697 5693 5687
5821 5821 5820 5819 5818 5817 5814 5812 5809 5807 5805 5803 5801 5799 5796 5794 5792 5789 5786 5782 5778 5774 5771 5767 5763 5759 5754 5750 5746 5741 5737 5731 5726 5720 5715 5709 5702 5696 5689 5684 5679 5675 5670
5814 5814 5813 5812 5810 5808 5806 5804 5801 5799 5797 5795 5793 5789 5787 5784 5781 5778 5775 5771 5767 5763 5759 5755 5751 5747 5742 5737 5732 5727 5722 5716 5711 5705 5698 5692 5686 5679 5672 5665 5658 5653 5650
5806 5806 5806 5804 5803 5801 5798 5795 5793 5791 5789 5786 5784 5781 5778 5774 5771 5767 5763 5759 5755 5751 5746 5742 5738 5733 5728 5723 5718 5712 5706 5700 5694 5688 5682 5675 5669 5662 5654 5647 5640 5632 5627
5800 5799 5797 5796 5794 5792 5789 5786 5783 5782 5779 5777 5774 5771 5768 5764 5760 5755 5751 5747 5742 5738 5733 5728 5723 5718 5713 5707 5702 5696 5690 5684 5678 5672 5665 5659 5652 5645 5637 5630 5622 5614 5606
5792 5791 5789 5787 5785 5782 5779 5777 5774 5772 5769 5767 5763 5760 5756 5752 5748 5743 5738 5734 5729 5724 5719 5714 5709 5704 5698 5692 5687 5681 5675 5669 5662 5656 5649 5643 5635 5628 5621 5613 5605 5596 5587
5783 5782 5780 5778 5775 5773 5771 5768 5765 5762 5759 5756 5752 5748 5743 5739 5734 5730 5724 5720 5715 5710 5705 5700 5695 5689 5683 5678 5672 5666 5660 5653 5647 5641 5634 5627 5620 5612 5604 5596 5588 5580 5571
5774 5773 5770 5768 5766 5763 5760 5758 5754 5751 5747 5743 5739 5734 5730 5725 5720 5715 5711 5706 5701 5696 5691 5685 5680 5674 5669 5663 5657 5651 5645 5638 5632 5625 5618 5611 5604 5597 5589 5582 5573 5565 5557
5764 5763 5760 5758 5755 5752 5749 5746 5742 5738 5733 5729 5724 5720 5715 5710 5706 5701 5696 5691 5686 5681 5676 5671 5665 5660 5654 5648 5642 5636 5630 5624 5617 5610 5603 5596 5589 5582 5575 5567 5560 5552 5546
5754 5751 5748 5746 5743 5740 5736 5732 5728 5723 5719 5714 5709 5705 5700 5696 5691 5686 5681 5676 5671 5667 5662 5656 5651 5645 5640 5634 5628 5622 5615 5609 5603 5597 5590 5582 5575 5569 5562 5555 5549 5543 5537
5742 5740 5737 5734 5731 5727 5723 5719 5714 5709 5704 5700 5695 5690 5685 5681 5676 5672 5667 5663 5658 5653 5648 5642 5637 5632 5626 5620 5614 5608 5602 5595 5589 5583 5577 5570 5564 5558 5552 5546 5541 5535 5530
5731 5728 5725 5721 5717 5713 5709 5705 5700 5695 5691 5686 5681 5676 5672 5667 5663 5659 5654 5649 5644 5639 5634 5629 5624 5618 5613 5607 5601 5595 5588 5582 5576 5570 5565 5559 5554 5549 5544 5540 5535 5531 5526
5719 5716 5712 5709 5705 5701 5696 5691 5687 5682 5678 5673 5668 5664 5659 5655 5651 5646 5642 5637 5632 5627 5622 5617 5611 5606 5600 5595 5589 5582 5576 5570 5565 5560 5555 5551 5547 5543 5539 5535 5532 5528 5524
5708 5704 5701 5697 5693 5688 5684 5679 5675 5670 5666 5661 5657 5652 5648 5643 5639 5635 5630 5625 5620 5615 5609 5604 5599 5594 5588 5583 5577 5572 5566 5561 5556 5552 5548 5544 5541 5538 5535 5532 5529 5526 5523
5696 5693 5689 5685 5681 5677 5672 5668 5663 5659 5655 5651 5646 5642 5637 5633 5628 5623 5618 5613 5608 5603 5598 5593 5588 5583 5577 5572 5568 5563 5558 5554 5550 5546 5543 5540 5538 5535 5533 5531 5528 5525 5522
5686 5682 5678 5675 5670 5666 5662 5658 5654 5650 5645 5641 5637 5632 5627 5622 5617 5612 5607 5602 5597 5592 5587 5582 5577 5572 5568 5563 5559 5555 5552 5548 5545 5542 5540 5538 5536 5534 5532 5530 5527 5525 5522
5675 5672 5669 5665 5661 5657 5653 5650 5645 5641 5637 5632 5627 5622 5617 5612 5607 5602 5597 5592 5587 5582 5577 5573 5568 5564 5560 5557 5553 5550 5547 5544 5542 5540 5538 5537 5535 5534 5532 5530 5527 5525 5522
5666 5663 5660 5657 5654 5650 5646 5642 5638 5633 5629 5624 5619 5613 5608 5603 5598 5593 5588 5583 5578 5574 5570 5565 5562 5558 5555 5552 5549 5546 5544 5541 5540 5538 5537 5536 5535 5534 5532 5530 5528 5525 5522
5659 5657 5654 5651 5648 5644 5640 5636 5631 5626 5621 5616 5611 5605 5600 5594 5589 5584 5579 5575 5571 5567 5564 5561 5557 5555 5552 5549 5546 5543 5541 5540 5539 5538 5537 5537 5536 5534 5533 5531 5529 5527 5524
5654 5651 5649 5646 5642 5639 5634 5630 5625 5620 5614 5608 5603 5597 5591 5586 5581 5577 5573 5569 5566 5563 5560 5557 5554 5551 5549 5546 5544 5542 5540 5539 5539 5539 5538 5538 5537 5535 5534 5533 5531 5529 5526